Regional Weather Roundup
Issued by NWS

Home | Current Version | Previous Version | Text Only | Print | Product List | Glossary On
Versions: 1 2 3 4 5 6 7 8 9 10 11 12 13 14 15 16 17 18 19 20 21 22 23 24 25 26 27 28 29 30 31 32 33 34 35 36 37 38 39 40 41 42 43 44 45 46 47 48 49 50
000
ASUS43 KDTX 300601
RWRMI
MICHIGAN HOURLY REGIONAL WEATHER ROUNDUP
NATIONAL WEATHER SERVICE DETROIT/PONTIAC MI
200 AM EDT SUN AUG 30 2015

NOTE: "FAIR" INDICATES FEW OR NO CLOUDS BELOW 12,000 FEET WITH NO
SIGNIFICANT WEATHER AND/OR OBSTRUCTION TO VISIBILITY.

MIZ047>049-052>055-059>063-066>070-074>076-081>083-300700-
SOUTHEAST LOWER MICHIGAN

CITY           SKY/WX    TMP DP  RH WIND       PRES   REMARKS
ADRIAN         MOCLDY    67  65  93 CALM      30.06F FOG
6HR MIN TEMP:  67; 6HR MAX TEMP:  71; 6HR PCP: TRACE;

ALMA           CLOUDY    64  64  99 CALM      30.06S FOG
ANN ARBOR      FAIR      67  65  93 CALM      30.06F FOG
BAD AXE        CLOUDY    63  63  98 CALM      30.07F FOG
CARO           CLOUDY    63  63  97 CALM      30.06F FOG
DETROIT CITY   LGT RAIN  68  65  90 CALM      30.06F
6HR MIN TEMP:  68; 6HR MAX TEMP:  73; 6HR PCP: TRACE;

DETROIT        CLOUDY    69  65  86 CALM      30.06F
6HR MIN TEMP:  69; 6HR MAX TEMP:  75; 6HR PCP:  0.01;

FLINT          CLOUDY    67  64  90 CALM      30.06F FOG
6HR MIN TEMP:  67; 6HR MAX TEMP:  69; 6HR PCP:  0.07;

GROSSE ILE     FAIR      70  64  83 CALM      30.05S
HILLSDALE      MOCLDY    66  66 100 S3        30.06F
HOWELL         CLOUDY    66  66  98 SE6       30.05F FOG
6HR MIN TEMP:  66; 6HR MAX TEMP:  67;


CITY           SKY/WX    TMP DP  RH WIND       PRES   REMARKS
JACKSON        CLOUDY    67  66  97 SE6       30.05F FOG
6HR MIN TEMP:  66; 6HR MAX TEMP:  69; 6HR PCP:  0.03;

LAMBERTVILLE   DRIZZLE   69  66  91 CALM      30.07S
6HR MIN TEMP:  68; 6HR MAX TEMP:  72;

LANSING        LGT RAIN  66  65  96 E3        30.05F
6HR MIN TEMP:  66; 6HR MAX TEMP:  66; 6HR PCP:  0.03;

LAPEER         CLOUDY    64  64 100 CALM      30.07S FOG
6HR MIN TEMP:  64; 6HR MAX TEMP:  66; 6HR PCP:  0.02;

MASON          CLOUDY    67  64  90 CALM      30.05F FOG
MONROE         CLOUDY    66  65  96 CALM      30.06S FOG
6HR MIN TEMP:  65; 6HR MAX TEMP:  70; 6HR PCP:  0.06;

MT. CLEMENS    MOCLDY    67  66  96 E3        30.05S
6HR MIN TEMP:  66; 6HR MAX TEMP:  70; 6HR PCP:  0.01;

PONTIAC        CLOUDY    65  64  97 SE3       30.06F FOG
6HR MIN TEMP:  65; 6HR MAX TEMP:  68; 6HR PCP:  0.04;

PORT HOPE        N/A     65  63  93 CALM      30.05F
6HR MIN TEMP:  64; 6HR MAX TEMP:  66;

PORT HURON     MOCLDY    64  64 100 CALM      30.06F FOG
TRI CITIES     CLOUDY    66  63  90 NE5       30.07S FOG
6HR MIN TEMP:  66; 6HR MAX TEMP:  67; 6HR PCP: TRACE;

MIDLAND        CLOUDY    64  63  96 CALM      30.06S FOG
TROY           CLOUDY    67  65  96 CALM      30.08F FOG
SAGINAW HB     CLOUDY    63  63 100 NE3       30.05F FOG
$$
MIZ043>046-050>051-056>058-064>065-071>073-077>080-300700-
SOUTHWEST LOWER MICHIGAN

CITY           SKY/WX    TMP DP  RH WIND       PRES   REMARKS
BATTLE CREEK   CLOUDY    68  65  90 S5        30.05S
6HR MIN TEMP:  68; 6HR MAX TEMP:  69; 6HR PCP:  0.01;

BENTON HARBOR  CLOUDY    68  67  96 S3        30.02S FOG
6HR MIN TEMP:  67; 6HR MAX TEMP:  69; 6HR PCP:  0.01;

BIG RAPIDS     CLOUDY    63  62  97 CALM      30.06S FOG
6HR MIN TEMP:  63; 6HR MAX TEMP:  64;

COLDWATER      CLOUDY    66  66  98 CALM      30.05S
6HR MIN TEMP:  66; 6HR MAX TEMP:  68;

FREMONT        CLOUDY    64  64 100 E5        30.04S FOG
6HR MIN TEMP:  64; 6HR MAX TEMP:  64;

HOLLAND        CLOUDY    68  65  90 E3        30.03S FOG
6HR MIN TEMP:  67; 6HR MAX TEMP:  68; 6HR PCP: TRACE;

GRAND RAPIDS   LGT RAIN  66  65  96 E3        30.04F FOG
6HR MIN TEMP:  65; 6HR MAX TEMP:  66; 6HR PCP:  0.08;

IONIA          CLOUDY    64  64 100 CALM      30.04S FOG
6HR MIN TEMP:  64; 6HR MAX TEMP:  65; 6HR PCP:  0.01;

KALAMAZOO      CLOUDY    67  64  90 S3        30.04S
6HR MIN TEMP:  67; 6HR MAX TEMP:  69; 6HR PCP:  0.03;

LUDINGTON      CLOUDY    64  61  91 CALM      30.05F
6HR MIN TEMP:  64; 6HR MAX TEMP:  71;

MARSHALL       LGT RAIN  67  65  92 SE3       30.04S
MOUNT PLEASANT CLOUDY    65  63  93 CALM      30.06S FOG
6HR MIN TEMP:  65; 6HR MAX TEMP:  66;

MUSKEGON       CLOUDY    65  62  90 E5        30.03F FOG
6HR MIN TEMP:  65; 6HR MAX TEMP:  66; 6HR PCP: TRACE;

SOUTH HAVEN    CLOUDY    67  65  96 CALM      30.02S FOG
$$
MIZ016>042-300700-
NORTHERN LOWER MICHIGAN

CITY           SKY/WX    TMP DP  RH WIND       PRES   REMARKS
ALPENA         FAIR      56  54  93 S3        30.06F
6HR MIN TEMP:  55; 6HR MAX TEMP:  67;

BEAVER ISLAND  FOG       57  56  98 CALM      30.05S VSB 3/4
6HR MIN TEMP:  55; 6HR MAX TEMP:  65;

BELLAIRE       FOG       58  56  95 CALM      30.06S VSB 1/4
6HR MIN TEMP:  56; 6HR MAX TEMP:  71;

CADILLAC       CLOUDY    58  57  97 CALM      30.07F FOG
CHARLEVOIX     FAIR      59  58  99 CALM      30.08F FOG
6HR MIN TEMP:  58; 6HR MAX TEMP:  66;

FRANKFORT      FOG       56  55  97 CALM      30.05F VSB 1
GAYLORD        FAIR      57  57 100 CALM      30.07F FOG
6HR MIN TEMP:  56; 6HR MAX TEMP:  68;

GRAYLING       FOG       54  51  91 CALM      30.08F VSB 1/4
6HR MIN TEMP:  53; 6HR MAX TEMP:  66;

HARBOR SPRINGS FAIR      57  56  98 CALM      30.06S
HOUGHTON LAKE  FOG       53  52  96 CALM      30.08F VSB 1/4
6HR MIN TEMP:  52; 6HR MAX TEMP:  64;

MANISTEE         N/A     63  57  82 CALM      30.05F VSB 3/4
OSCODA         FOG       54  54  99 CALM      30.06S VSB 1/4
6HR MIN TEMP:  54; 6HR MAX TEMP:  67;

PELLSTON       FAIR      54  52  93 CALM      30.06S
6HR MIN TEMP:  53; 6HR MAX TEMP:  68;

ROGERS CITY    FAIR      61  59  93 SW5       30.06S
TRAVERSE CITY  FAIR      62  59  90 CALM      30.04F FOG
6HR MIN TEMP:  62; 6HR MAX TEMP:  69;

$$
MIZ007>008-015-300700-
EASTERN UPPER MICHIGAN

CITY           SKY/WX    TMP DP  RH WIND       PRES   REMARKS
KINROSS        CLOUDY    61  59  94 S5        30.04F VSB 3/4
6HR MIN TEMP:  61; 6HR MAX TEMP:  66;

MACKINAC ISLAN FAIR      60  59  96 S6        30.05S
NEWBERRY       FAIR      60  60 100 SW7       30.03S FOG
6HR MIN TEMP:  58; 6HR MAX TEMP:  66;

S. S. MARIE    MOCLDY    60  58  92 SE5       30.04S FOG
6HR MIN TEMP:  60; 6HR MAX TEMP:  68;

$$
MIZ004>006-011>014-085-300700-
CENTRAL UPPER MICHIGAN

CITY           SKY/WX    TMP DP  RH WIND       PRES   REMARKS
MANISTIQUE     MOCLDY    62  61  97 S7        30.03S FOG
6HR MIN TEMP:  59; 6HR MAX TEMP:  63;

ESCANABA       FAIR      61  57  88 SW7       30.03S
6HR MIN TEMP:  57; 6HR MAX TEMP:  66;

MENOMINEE      FAIR      61  57  88 W3        30.04S
6HR MIN TEMP:  59; 6HR MAX TEMP:  68;

SAWYER-GWINN   FAIR      60  58  94 S5        30.03S
6HR MIN TEMP:  60; 6HR MAX TEMP:  70;

$$
MIZ001>003-009>011-084-300700-
WESTERN UPPER MICHIGAN

CITY           SKY/WX    TMP DP  RH WIND       PRES   REMARKS
IRON MOUNTAIN  FAIR      59  58  96 S3        30.03S
6HR MIN TEMP:  59; 6HR MAX TEMP:  71;

HOUGHTON       FAIR      59  57  93 CALM      29.98F
6HR MIN TEMP:  59; 6HR MAX TEMP:  69;

IRONWOOD       FAIR      63  63 100 SW3       29.99S
6HR MIN TEMP:  59; 6HR MAX TEMP:  72;

$$

ABBREVIATIONS USED IN REMARKS
   TC - TEMPERATURE IN CELSIUS
  WCI - WIND CHILL INDEX
   HX - HEAT INDEX
  VSB - VISIBILITY




USA.gov is the U.S. government's official web portal to all federal, state and local government web resources and services.